Location: Recife
(8.0585°S, 34.8848°W)
Time: 14:29:20
(UTC-03:00)

Tiros 1 despin weight - Pass Details

Date: 20 April 2026
Orbit: 555 x 591 km, 48.2° (Epoch: 14 May)

Event Time Altitude Azimuth Distance (km) Brightness Sun altitude
Rises 23:41:15 0° 307° (NW) 2,805 - -83.2°
Reaches altitude 10° 23:43:37 10° 300° (WNW) 1,909 - -82.7°
Maximum altitude 23:47:45 41° 229° (SW) 860 - -81.8°
Drops below altitude 10° 23:51:54 10° 159° (SSE) 1,914 - -80.9°
Sets 23:54:17 0° 151° (SSE) 2,814 - -80.4°
